Location: Champseau
(45.8333°N, 1.7667°E)
Time: 18:38:25
(UTC+00:00)

STRAND 1 - Pass Details

Date: 30 November 2021
Orbit: 768 x 780 km, 98.4° (Epoch: 23 January)

Event Time Altitude Azimuth Distance (km) Brightness Sun altitude
Rises 06:26:49 0° 176° (S) 3,247 ? -7.9°
Reaches altitude 10° 06:29:10 10° 181° (S) 2,322 ? -7.6°
Maximum altitude 06:34:12 57° 259° (W) 917 ? -6.8°
Drops below altitude 10° 06:39:16 10° 338° (NNW) 2,332 ? -6.0°
Sets 06:41:38 0° 343° (NNW) 3,261 ? -5.6°
